Elmira, NY

10:58 AM EST on February 20, 2018 (GMT -0500)
Elmira-Corning Regional

Weather History for KELM - March, 2013

Change the Weather History Date:

Thursday, March 7, 2013

  Actual Average Record
Temperature  
Mean Temperature 34 °F -  
Max Temperature 37 °F 40 °F 69 °F (1946)
Min Temperature 30 °F 20 °F -11 °F (2003)
Degree Days  
Heating Degree Days 32    
Moisture  
Dew Point 22 °F    
Average Humidity 61    
Maximum Humidity 70    
Minimum Humidity 51    
Precipitation  
Precipitation 0.00 in - - ()
Sea Level Pressure  
Sea Level Pressure 30.17 in    
Wind  
Wind Speed 6 mph (North)    
Max Wind Speed 12 mph    
Max Gust Speed 16 mph    
Visibility 10 miles    
Events      
Averages and records for this station are not official NWS values.
T = Trace of Precipitation, MM = Missing Value Source: NWS Daily Summary

Daily Weather History Graph

Daily Weather History Graph

Search for Another Location

Airport or City:

Trip Planner

Search our weather history database for the weather conditions in past years. The results will help you decide how hot, cold, wet, or windy it might be!

Date:

Astronomy

Mar. 07, 2013 Rise Set
Actual Time 6:32 AM EST 6:05 PM EST
Civil Twilight 6:04 AM EST 6:33 PM EST
Nautical Twilight 5:32 AM EST 7:05 PM EST
Astronomical Twilight 4:59 AM EST 7:38 PM EST
Moon 3:34 AM EST (3/7) 1:46 PM EST (3/7)
Length of Visible Light 12h 28m
Length of Day
11h 32m
Waning Crescent, 20% of the Moon is Illuminated
Mar 7
Waning Crescent
Mar 11
New
Mar 19
First Quarter
Mar 27
Full
Apr 3
Last Quarter

Hourly Weather History & Observations

Time (EST) Temp. Windchill Dew Point Humidity Pressure Visibility Wind Dir Wind Speed Gust Speed Precip Events Conditions
12:53 AM 35.1 °F 32.2 °F 21.9 °F 59% 30.10 in 10.0 mi NNE 3.5 mph - N/A   Overcast
1:53 AM 34.0 °F 29.8 °F 21.9 °F 61% 30.11 in 10.0 mi North 4.6 mph - N/A   Overcast
2:53 AM 34.0 °F 29.8 °F 21.0 °F 59% 30.10 in 10.0 mi NNE 4.6 mph - N/A   Overcast
3:53 AM 34.0 °F 28.8 °F 21.9 °F 61% 30.12 in 10.0 mi NNE 5.8 mph - N/A   Overcast
4:53 AM 34.0 °F 29.8 °F 21.9 °F 61% 30.12 in 10.0 mi NNE 4.6 mph - N/A   Overcast
5:53 AM 33.1 °F 27.7 °F 21.9 °F 64% 30.12 in 10.0 mi NE 5.8 mph - N/A   Overcast
6:53 AM 33.1 °F - 21.9 °F 64% 30.13 in 10.0 mi Calm Calm - N/A   Overcast
7:53 AM 35.1 °F 29.3 °F 21.9 °F 59% 30.14 in 10.0 mi NNE 6.9 mph - N/A   Overcast
8:53 AM 36.0 °F 28.5 °F 21.9 °F 57% 30.16 in 10.0 mi NNE 10.4 mph - N/A   Overcast
9:53 AM 36.0 °F 29.0 °F 21.9 °F 57% 30.17 in 10.0 mi NE 9.2 mph - N/A   Overcast
10:53 AM 37.9 °F 31.5 °F 21.9 °F 53% 30.17 in 10.0 mi NNE 9.2 mph - N/A   Overcast
11:53 AM 37.9 °F 30.9 °F 21.9 °F 53% 30.17 in 10.0 mi North 10.4 mph 16.1 mph N/A   Overcast
12:53 PM 37.9 °F 33.5 °F 21.0 °F 51% 30.17 in 10.0 mi North 5.8 mph - N/A   Overcast
1:53 PM 37.9 °F 32.1 °F 21.9 °F 53% 30.16 in 10.0 mi North 8.1 mph - N/A   Overcast
2:53 PM 37.0 °F 34.5 °F 21.9 °F 54% 30.17 in 10.0 mi North 3.5 mph - N/A   Overcast
3:44 PM 35.6 °F 29.9 °F 26.6 °F 70% 30.15 in 10.0 mi NW 6.9 mph - 0.00 in   Overcast
3:53 PM 36.0 °F 32.1 °F 26.1 °F 67% 30.18 in 10.0 mi Variable 4.6 mph - 0.00 in   Overcast
4:03 PM 35.6 °F 31.7 °F 24.8 °F 65% 30.15 in 10.0 mi North 4.6 mph - N/A   Overcast
4:44 PM 35.6 °F 31.7 °F 24.8 °F 65% 30.15 in 10.0 mi North 4.6 mph - N/A   Overcast
4:53 PM 36.0 °F 29.0 °F 24.1 °F 62% 30.19 in 10.0 mi North 9.2 mph - N/A   Overcast
5:53 PM 35.1 °F 26.9 °F 23.0 °F 61% 30.21 in 10.0 mi NNE 11.5 mph - N/A   Overcast
6:53 PM 33.1 °F 24.9 °F 24.1 °F 70% 30.23 in 10.0 mi North 10.4 mph - N/A   Overcast
7:53 PM 32.0 °F 25.6 °F 21.0 °F 64% 30.24 in 10.0 mi North 6.9 mph - N/A   Mostly Cloudy
8:53 PM 32.0 °F 26.4 °F 21.0 °F 64% 30.24 in 10.0 mi North 5.8 mph - N/A   Overcast
9:53 PM 30.9 °F 24.3 °F 21.0 °F 67% 30.23 in 10.0 mi NNW 6.9 mph - N/A   Overcast
10:53 PM 30.9 °F 22.2 °F 19.9 °F 64% 30.22 in 10.0 mi North 10.4 mph - N/A   Overcast
11:53 PM 30.9 °F 24.3 °F 19.9 °F 64% 30.21 in 10.0 mi NNW 6.9 mph - N/A   Overcast